Hourly Data Report for February 25, 2006

TORONTO CITY
ONTARIO

43°40'00.000" N
79°24'00.000" W
112.50 m
6158355
71508
XTO

Download Data

Hourly Data (February 2006)
Hourly Data Report for February 25, 2006
TIME
LST
Temp Definition
°C
Dew Point Definition
°C
Rel Hum Definition
%
Precip. Amount Definition
mm

Wind Dir Definition
10's deg

Wind Spd Definition
km/h
Visibility Definition
km
Stn Press Definition
kPa
Hmdx Definition


Wind Chill Definition


Weather Definition


00:00 -2.2 -5.7 77   LegendMM LegendMM   100.92     LegendNANA
01:00 -2.8 -3.4 96   LegendMM LegendMM   100.73     LegendNANA
02:00 -2.3 -3.4 92   LegendMM LegendMM   100.52     LegendNANA
03:00 -2.1 -3.6 89   LegendMM LegendMM   100.27     LegendNANA
04:00 -2.3 -3.0 95   LegendMM LegendMM   99.99     LegendNANA
05:00 -2.3 -2.7 97   LegendMM LegendMM   99.79     LegendNANA
06:00 -2.3 -2.6 98   LegendMM LegendMM   99.60     LegendNANA
07:00 -1.7 -2.0 98   LegendMM LegendMM   99.42     LegendNANA
08:00 -0.9 -1.7 94   LegendMM LegendMM   99.28     LegendNANA
09:00 0.1 -1.2 91   LegendMM LegendMM   99.26     LegendNANA
10:00 1.0 -0.8 88   LegendMM LegendMM   99.22     LegendNANA
11:00 1.8 -1.9 76   LegendMM LegendMM   99.30     LegendNANA
12:00 2.6 -1.3 75   LegendMM LegendMM   99.37     LegendNANA
13:00 -1.4 -5.3 75   LegendMM LegendMM   99.67     LegendNANA
14:00 -1.4 -6.7 67   LegendMM LegendMM   99.86     LegendNANA
15:00 -2.8 -8.3 66   LegendMM LegendMM   100.12     LegendNANA
16:00 -3.5 -8.9 66   LegendMM LegendMM   100.32     LegendNANA
17:00 -3.9 -8.5 70   LegendMM LegendMM   100.57     LegendNANA
18:00 -4.0 -8.2 73   LegendMM LegendMM   100.72     LegendNANA
19:00 -4.1 -8.1 74   LegendMM LegendMM   100.87     LegendNANA
20:00 -4.6 -8.0 77   LegendMM LegendMM   100.97     LegendNANA
21:00 -4.6 -7.4 81   LegendMM LegendMM   101.01     LegendNANA
22:00 -5.0 -6.5 89   LegendMM LegendMM   101.03     LegendNANA
23:00 -5.5 -6.3 94   LegendMM LegendMM   101.06     LegendNANA

Notes on Data Quality.

Legend

  • E = Estimated
  • M = Missing
  • NA = Not Available*
  • [empty] = Indicates an unobserved value
Date modified: